This is the latest recevied weather packets stored in our database for station/object OK1FET-4. If no packets are shown the sender has not sent any weather packets the latest 10 day(s).
| Time | Temp. | Humidity | Pressure | Rain* | Wind** | Luminosity | Snow |
|---|---|---|---|---|---|---|---|
| 1788171103 | 20° C | 100% | 1016.5 hPa | - | - | - | - |
| 1788170802 | 20.56° C | 100% | 1016.3 hPa | - | - | - | - |
| 1788170501 | 20.56° C | 100% | 1016.6 hPa | - | - | - | - |
| 1788170200 | 20.56° C | 100% | 1016.6 hPa | - | - | - | - |
| 1788169899 | 20° C | 100% | 1016.6 hPa | - | - | - | - |
| 1788169598 | 20° C | 100% | 1016.7 hPa | - | - | - | - |
| 1788169297 | 20° C | 100% | 1016.6 hPa | - | - | - | - |
| 1788168996 | 19.44° C | 100% | 1016.7 hPa | - | - | - | - |
| 1788168695 | 18.89° C | 100% | 1016.7 hPa | - | - | - | - |
| 1788168394 | 18.89° C | 100% | 1016.8 hPa | - | - | - | - |
| 1788168093 | 18.89° C | 100% | 1016.7 hPa | - | - | - | - |
| 1788167792 | 18.89° C | 100% | 1016.8 hPa | - | - | - | - |
| 1788167492 | 18.89° C | 100% | 1016.7 hPa | - | - | - | - |
| 1788167191 | 18.33° C | 100% | 1016.7 hPa | - | - | - | - |
| 1788166890 | 18.33° C | 100% | 1016.6 hPa | - | - | - | - |
| 1788166589 | 18.33° C | 100% | 1016.7 hPa | - | - | - | - |
| 1788166288 | 18.33° C | 100% | 1016.7 hPa | - | - | - | - |
| 1788165987 | 19.44° C | 100% | 1016.6 hPa | - | - | - | - |
| 1788165686 | 19.44° C | 100% | 1016.5 hPa | - | - | - | - |
| 1788165385 | 17.78° C | 100% | 1016.5 hPa | - | - | - | - |
| 1788165085 | 17.22° C | 100% | 1016.4 hPa | - | - | - | - |
| 1788164784 | 16.67° C | 100% | 1016.3 hPa | - | - | - | - |
| 1788164484 | 16.67° C | 100% | 1016.2 hPa | - | - | - | - |
| 1788164183 | 16.11° C | 100% | 1016.2 hPa | - | - | - | - |
| 1788163883 | 16.11° C | 100% | 1016.2 hPa | - | - | - | - |
* Rain since midnight (hover to see other rain measurements)
** Current wind speed in m/s (hover to see current wind gust speed)